[[{"header":{"parameterUnit":"m.s-1","parameterCategory":1,"la1":30.2991,"la2":30.254,"lo1":-89.0895,"lo2":-89.0444,"dy":0.0017,"dx":0.0017,"nx":28,"ny":28,"refTime":"2023-08-25T03:00:00:Z","depth":0,"parameterNumber":2,"parameterNumberName":"U-component_of_WINDS"},"data":[0,0,0,0,0,0,0,0,0,0,0,0,0,0,0,0,0,0,0,0,0,0,0,0,0,0,0,0,0,0,0,0,0,0,0,0,0,0,0,0,0,0,0,0,0,0,0,0,0,0,0,0,0,0,0,0,0,0,3.3949,3.395,0,3.4014,3.4015,3.4015,3.3935,3.3932,3.3929,3.3926,3.3994,3.3998,3.4003,0,0,0,0,0,0,0,0,0,0,0,0,0,3.3759,3.3763,3.3949,3.395,3.3951,3.4014,3.4015,3.4016,3.3935,3.3932,3.3928,3.3925,3.3993,3.3998,3.4003,0,0,0,0,0,0,0,0,0,0,0,0,0,3.3835,3.3764,3.3949,3.3918,3.3916,3.4014,3.4015,3.4016,3.3936,3.3931,3.3927,3.3923,3.3991,3.3997,3.4004,3.4136,0,0,3.4025,3.4028,0,0,0,0,0,0,0,0,3.383,3.3842,3.3922,3.3921,3.3918,3.3962,3.3972,3.4056,3.3937,3.3929,3.3926,3.3921,3.3987,3.3994,3.4016,3.4139,3.4142,3.4026,3.403,3.4033,3.4035,0,0,0,0,0,0,0,3.3825,3.3838,3.3975,3.3923,3.3921,3.3902,3.3908,3.3988,3.3982,3.3929,3.3923,3.3932,3.3985,3.4009,3.4017,3.4143,3.4026,3.4032,3.4036,3.4039,3.4379,3.4383,0,0,0,0,0,0,3.3823,3.3835,3.3973,3.3977,3.3863,3.3909,3.3916,3.3952,3.3981,3.3981,3.3936,3.3928,3.4,3.4009,3.4019,3.4176,3.4033,3.4039,3.4043,3.4374,3.438,3.4385,0,0,0,0,0,0,3.382,3.3836,3.397,3.3904,3.392,3.3917,3.3959,3.3956,3.398,3.3986,3.3985,3.3961,3.3997,3.4009,3.4107,3.4177,3.4042,3.4049,3.4368,3.4376,3.4383,3.4491,0,0,0,0,0,0,3.3814,3.3836,3.3885,3.3906,3.3924,3.4057,3.3963,3.396,3.3992,3.3982,3.401,3.401,3.3994,3.4098,3.4114,3.4184,3.4054,3.4362,3.4371,3.438,3.4481,3.4501,3.4518,0,0,0,0,0,3.3808,3.3913,3.3888,3.3905,3.3985,3.4061,3.4072,3.4051,3.3998,3.4048,3.4052,3.4009,3.4167,3.4108,3.4126,3.42,3.4357,3.4369,3.4379,3.4473,3.4497,3.4518,0,0,0,0,0,0,3.39,3.3915,3.3887,3.4002,3.4031,3.4048,3.411,3.4077,3.4122,3.4111,3.4084,3.4091,3.4196,3.4207,3.4142,3.4329,3.4253,3.4269,3.4318,3.4341,3.436,3.4355,3.406,0,0,0,0,0,3.3934,3.3994,3.4003,3.4104,3.412,3.4113,3.4145,3.4127,3.4156,3.4168,3.4179,3.421,3.4266,3.4304,3.4356,3.4482,3.4488,3.4541,3.456,3.4575,3.4589,3.4658,3.4682,3.4422,3.4421,3.4421,0,0,3.4004,3.4019,3.4059,3.4123,3.4143,3.4207,3.4124,3.4194,3.4242,3.4179,3.4273,3.4282,3.4315,3.4428,3.4478,3.444,3.4662,3.4589,3.4601,3.4607,3.4672,3.4697,3.4719,3.4429,3.4428,3.4426,0,0,3.4164,3.4182,3.4268,3.429,3.4322,3.4317,3.4338,3.436,3.4364,3.4457,3.4412,3.4468,3.4566,3.4591,3.4617,3.479,3.4753,3.4807,3.4905,3.4972,3.4993,3.5011,3.5074,3.5097,3.4821,3.4821,3.4821,0,3.4248,3.4342,3.4316,3.4391,3.4421,3.4367,3.4455,3.4478,3.4526,3.4548,3.4505,3.4627,3.4645,3.4765,3.4807,3.4829,3.4853,3.4804,3.4992,3.501,3.5026,3.5086,3.511,3.4828,3.4827,3.4826,3.4826,0,3.4444,3.4509,3.4575,3.4623,3.466,3.4741,3.4729,3.477,3.4749,3.4749,3.4846,3.4866,3.4922,3.4948,3.4928,3.5066,3.5041,3.4996,3.4919,3.5058,3.5114,3.5137,3.4837,3.4835,3.4833,3.4831,0,0,3.4664,3.4697,3.4722,3.4744,3.4775,3.4826,3.4906,3.496,3.4997,3.5032,3.5099,3.5183,3.5141,3.5171,3.5153,3.5212,3.535,3.5159,3.5159,3.5195,3.5504,3.554,3.5567,3.5325,3.5329,3.5332,3.5502,0,3.4827,3.4963,3.4943,3.5075,3.5137,3.5086,3.5155,3.5183,3.5185,3.5239,3.5241,3.5302,3.5241,3.5259,3.5315,3.5321,3.5412,3.5308,3.5388,3.5391,3.5383,3.5596,3.5633,3.5792,3.5524,3.5527,3.553,0,3.5034,3.5077,3.5215,3.5239,3.5264,3.5326,3.5375,3.5426,3.5457,3.5455,3.5489,3.5461,3.5541,3.5463,3.5574,3.5505,3.5536,3.5544,3.555,3.5557,3.547,3.5611,3.5842,3.5867,3.5564,3.5561,3.5559,0,3.5184,3.5276,3.537,3.539,3.542,3.5465,3.548,3.5506,3.5541,3.5584,3.5606,3.5659,3.5688,3.5729,3.5717,3.566,3.5832,3.5752,3.5834,3.5834,3.5873,3.5871,3.6115,3.5891,3.5891,3.5891,3.589,0,3.5368,3.5455,3.5438,3.5497,3.5593,3.557,3.5666,3.5675,3.5699,3.5759,3.5719,3.5776,3.5755,3.5812,3.5803,3.5898,3.5911,3.5912,3.5909,3.5917,3.5917,3.5938,3.5928,3.5897,3.5895,3.5894,3.5893,0,3.5552,3.5544,3.5644,3.5664,3.5671,3.5741,3.5759,3.5814,3.5813,3.589,3.5907,3.5906,3.5971,3.5962,3.6035,3.6028,3.6147,3.613,3.6137,3.6134,3.6216,3.621,3.6483,3.6519,3.6271,3.6274,3.6276,0,3.5671,3.5736,3.5763,3.58,3.5818,3.5879,3.5914,3.5894,3.5932,3.5973,3.6024,3.6086,3.6133,3.624,3.6247,3.6302,3.6287,3.6379,3.6295,3.6301,3.629,3.6287,3.6295,3.6396,3.6399,3.6401,3.6403,0,3.5883,3.5876,3.5928,3.598,3.6022,3.6062,3.6097,3.613,3.6114,3.6159,3.6225,3.6262,3.6336,3.6398,3.6451,3.6467,3.6434,3.6429,3.6451,3.6461,3.6463,3.6465,3.6184,3.6423,3.6421,3.642,3.6419,3.6418,3.604,3.6096,3.6124,3.6184,3.6208,3.6243,3.6296,3.6302,3.6356,3.6415,3.64,3.6475,3.6505,3.6572,3.6594,3.6653,3.662,3.6651,3.666,3.6668,3.6679,3.6452,3.6662,3.6662,3.6661,3.6661,3.666,0,3.6252,3.6267,3.6322,3.6373,3.642,3.6383,3.6421,3.6463,3.653,3.6561,3.6609,3.6685,3.6745,3.6757,3.6814,3.686,3.6846,3.6876,3.6873,3.6878,3.6705,3.668,3.6886,3.6886,3.6886,3.6886,3.6886,3.6886,3.6368,3.6462,3.6459,3.6566,3.658,3.6653,3.6678,3.671,3.6735,3.6822,3.6872,3.6878,3.6902,3.6961,3.7015,3.7017,3.7041,3.7078,3.7074,3.6912,3.689,3.6868,3.6845,3.7082,3.7083,3.7242,3.7244,3.7245]},{"header":{"parameterUnit":"m.s-1","parameterCategory":1,"la1":30.2991,"la2":30.254,"lo1":-89.0895,"lo2":-89.0444,"dy":0.0017,"dx":0.0017,"nx":28,"ny":28,"refTime":"2023-08-25T03:00:00:Z","depth":0,"parameterNumber":3,"parameterNumberName":"V-component_of_WINDS"},"data":[0,0,0,0,0,0,0,0,0,0,0,0,0,0,0,0,0,0,0,0,0,0,0,0,0,0,0,0,0,0,0,0,0,0,0,0,0,0,0,0,0,0,0,0,0,0,0,0,0,0,0,0,0,0,0,0,0,0,-1.5505,-1.5506,0,-1.5562,-1.5562,-1.5563,-1.5568,-1.5568,-1.5567,-1.5566,-1.5625,-1.5627,-1.5629,0,0,0,0,0,0,0,0,0,0,0,0,0,-1.5404,-1.5406,-1.5505,-1.5506,-1.5507,-1.5561,-1.5562,-1.5563,-1.5568,-1.5568,-1.5567,-1.5566,-1.5624,-1.5626,-1.5629,0,0,0,0,0,0,0,0,0,0,0,0,0,-1.5453,-1.5406,-1.5505,-1.5516,-1.5517,-1.5561,-1.5562,-1.5563,-1.5568,-1.5568,-1.5567,-1.5566,-1.5623,-1.5626,-1.5629,-1.5666,0,0,-1.5639,-1.564,0,0,0,0,0,0,0,0,-1.545,-1.5456,-1.5514,-1.5515,-1.5517,-1.5557,-1.5548,-1.5598,-1.5569,-1.5549,-1.5566,-1.5565,-1.5603,-1.5608,-1.562,-1.5669,-1.5672,-1.5639,-1.5641,-1.5642,-1.5643,0,0,0,0,0,0,0,-1.5446,-1.5454,-1.5528,-1.5515,-1.5517,-1.5518,-1.5524,-1.5557,-1.558,-1.5551,-1.5551,-1.5558,-1.5604,-1.5617,-1.5621,-1.5672,-1.5639,-1.5642,-1.5644,-1.5645,-1.5755,-1.5756,0,0,0,0,0,0,-1.5441,-1.5451,-1.5526,-1.5529,-1.5481,-1.5521,-1.5528,-1.5545,-1.558,-1.5584,-1.5559,-1.5558,-1.5612,-1.5618,-1.5624,-1.5669,-1.5642,-1.5645,-1.5647,-1.5754,-1.5756,-1.5757,0,0,0,0,0,0,-1.5439,-1.5448,-1.5524,-1.549,-1.55,-1.5524,-1.5543,-1.5547,-1.556,-1.5586,-1.559,-1.5568,-1.5612,-1.5619,-1.5656,-1.5672,-1.5647,-1.565,-1.5753,-1.5755,-1.5756,-1.5761,0,0,0,0,0,0,-1.5436,-1.5447,-1.5461,-1.5491,-1.5502,-1.5554,-1.5544,-1.5548,-1.5565,-1.5565,-1.5596,-1.56,-1.5611,-1.5651,-1.5659,-1.5675,-1.5652,-1.5752,-1.5754,-1.5756,-1.576,-1.5763,-1.5766,0,0,0,0,0,-1.5432,-1.546,-1.5461,-1.547,-1.552,-1.5555,-1.5562,-1.5574,-1.5567,-1.5581,-1.5598,-1.5599,-1.5669,-1.5655,-1.5664,-1.5681,-1.5751,-1.5753,-1.5755,-1.5759,-1.5762,-1.5766,0,0,0,0,0,0,-1.5431,-1.5464,-1.5466,-1.5504,-1.5527,-1.5556,-1.5575,-1.5578,-1.5603,-1.5602,-1.5617,-1.5624,-1.566,-1.5674,-1.5658,-1.5719,-1.5709,-1.5713,-1.5708,-1.5712,-1.5715,-1.571,-1.5655,0,0,0,0,0,-1.5436,-1.5461,-1.5489,-1.552,-1.5531,-1.5551,-1.5567,-1.5575,-1.5599,-1.5609,-1.5628,-1.5651,-1.5679,-1.5696,-1.5723,-1.5762,-1.5769,-1.5779,-1.5782,-1.5784,-1.5787,-1.581,-1.5815,-1.5764,-1.5764,-1.5764,0,0,-1.5445,-1.5466,-1.5481,-1.552,-1.5539,-1.5565,-1.5559,-1.5587,-1.5607,-1.5613,-1.5649,-1.5664,-1.5691,-1.5729,-1.5747,-1.5743,-1.5803,-1.5787,-1.5789,-1.5791,-1.5813,-1.5818,-1.5822,-1.5766,-1.5766,-1.5765,0,0,-1.5475,-1.5493,-1.5521,-1.554,-1.5568,-1.5581,-1.5588,-1.5617,-1.5627,-1.5664,-1.5668,-1.5693,-1.5739,-1.5759,-1.5775,-1.5813,-1.5815,-1.5821,-1.5836,-1.5858,-1.5862,-1.5865,-1.5879,-1.5884,-1.5825,-1.5825,-1.5825,0,-1.5482,-1.5522,-1.5535,-1.5564,-1.5581,-1.5588,-1.5616,-1.5634,-1.5669,-1.5681,-1.5676,-1.5735,-1.5754,-1.5797,-1.5806,-1.5819,-1.5828,-1.5818,-1.586,-1.5864,-1.5867,-1.5881,-1.5886,-1.5825,-1.5825,-1.5825,-1.5825,0,-1.5531,-1.5558,-1.5578,-1.5612,-1.5631,-1.566,-1.5678,-1.5696,-1.5702,-1.5716,-1.5753,-1.5776,-1.5808,-1.5819,-1.5825,-1.5863,-1.586,-1.5857,-1.5847,-1.5872,-1.5885,-1.589,-1.5826,-1.5826,-1.5826,-1.5826,0,0,-1.5561,-1.5602,-1.5609,-1.5625,-1.5657,-1.5679,-1.5708,-1.5739,-1.5754,-1.5779,-1.5804,-1.5843,-1.5841,-1.5859,-1.5868,-1.5887,-1.5917,-1.5883,-1.5883,-1.5888,-1.596,-1.5962,-1.5967,-1.5919,-1.592,-1.592,-1.5958,0,-1.5595,-1.5646,-1.5659,-1.5703,-1.5729,-1.5736,-1.5762,-1.5784,-1.5798,-1.5823,-1.5838,-1.5866,-1.5861,-1.5872,-1.5892,-1.5909,-1.5931,-1.5907,-1.5942,-1.5943,-1.5935,-1.5974,-1.5976,-1.601,-1.5963,-1.5964,-1.5964,0,-1.564,-1.5666,-1.5712,-1.5741,-1.5753,-1.5775,-1.5805,-1.5828,-1.5854,-1.5863,-1.5884,-1.5891,-1.5922,-1.5911,-1.5954,-1.5937,-1.5953,-1.5963,-1.5965,-1.5969,-1.5955,-1.5979,-1.6021,-1.6026,-1.5972,-1.5972,-1.5971,0,-1.5658,-1.5704,-1.5738,-1.5751,-1.5786,-1.5801,-1.5817,-1.5842,-1.586,-1.5886,-1.5897,-1.5927,-1.5943,-1.5966,-1.5981,-1.5971,-1.6023,-1.6013,-1.6032,-1.6031,-1.6042,-1.6041,-1.6087,-1.6052,-1.6052,-1.6052,-1.6052,0,-1.5694,-1.5722,-1.5746,-1.5767,-1.5799,-1.5814,-1.5845,-1.5861,-1.5883,-1.5908,-1.5916,-1.5939,-1.5957,-1.5983,-1.5995,-1.6029,-1.6037,-1.6045,-1.6048,-1.6044,-1.6043,-1.6054,-1.6052,-1.6054,-1.6053,-1.6053,-1.6053,0,-1.5718,-1.5735,-1.5773,-1.5803,-1.5811,-1.5833,-1.5859,-1.588,-1.5894,-1.5925,-1.5933,-1.5956,-1.5987,-1.6005,-1.6043,-1.6051,-1.6089,-1.6091,-1.608,-1.6082,-1.61,-1.6098,-1.6154,-1.6163,-1.6122,-1.6123,-1.6123,0,-1.574,-1.5762,-1.5794,-1.5811,-1.5826,-1.5853,-1.5871,-1.5887,-1.5906,-1.5938,-1.5955,-1.5986,-1.6012,-1.606,-1.6081,-1.6111,-1.6113,-1.6131,-1.6118,-1.6113,-1.6113,-1.6112,-1.6114,-1.6133,-1.6134,-1.6134,-1.6134,0,-1.5777,-1.5784,-1.581,-1.5839,-1.5861,-1.5884,-1.5908,-1.5921,-1.5941,-1.5962,-1.5993,-1.6013,-1.6053,-1.6084,-1.6115,-1.6132,-1.6136,-1.6138,-1.6144,-1.614,-1.6133,-1.6138,-1.6087,-1.6137,-1.6136,-1.6136,-1.6136,-1.6136,-1.58,-1.582,-1.5846,-1.5875,-1.5894,-1.5916,-1.5937,-1.5955,-1.5981,-1.6014,-1.6022,-1.6055,-1.6082,-1.6124,-1.6142,-1.6168,-1.6165,-1.6173,-1.6176,-1.6177,-1.6178,-1.6129,-1.6174,-1.6174,-1.6174,-1.6174,-1.6174,0,-1.5837,-1.5854,-1.5881,-1.5913,-1.5936,-1.5939,-1.5965,-1.5984,-1.6013,-1.6037,-1.6062,-1.6098,-1.6129,-1.6152,-1.6183,-1.62,-1.6203,-1.6207,-1.6206,-1.621,-1.6179,-1.6171,-1.6204,-1.6204,-1.6204,-1.6204,-1.6204,-1.6204,-1.5859,-1.5893,-1.5904,-1.5948,-1.5965,-1.5997,-1.6012,-1.6033,-1.6052,-1.6092,-1.6117,-1.6132,-1.6156,-1.6189,-1.6217,-1.6223,-1.6234,-1.6238,-1.6245,-1.6215,-1.6212,-1.6209,-1.6201,-1.624,-1.624,-1.6273,-1.6274,-1.6274]}]]